Time,TemperatureF,DewpointF,PressureIn,WindDirection,WindDirectionDegrees,WindSpeedMPH,WindSpeedGustMPH,Humidity,HourlyPrecipIn,Conditions,Clouds,dailyrainin,SoftwareType,DateUTC
2013-10-16 00:00:00,44.0,42.7,29.84,NNW,347,10.0,17.0,95,0.01,,,0.00,VWS V14.01,2013-10-16 05:00:00,
2013-10-16 00:02:00,44.0,42.7,29.84,North,355,9.0,14.0,95,0.00,,,0.00,VWS V14.01,2013-10-16 05:02:00,
2013-10-16 00:07:00,43.9,42.6,29.84,North,355,12.0,14.0,95,0.00,,,0.00,VWS V14.01,2013-10-16 05:07:00,
2013-10-16 00:12:00,43.9,42.6,29.84,NNW,342,8.0,14.0,95,0.00,,,0.00,VWS V14.01,2013-10-16 05:12:00,
2013-10-16 00:17:00,43.9,42.6,29.84,North,5,8.0,14.0,95,0.00,,,0.00,VWS V14.01,2013-10-16 05:17:00,
2013-10-16 00:22:00,43.8,42.5,29.85,North,349,12.0,14.0,95,0.00,,,0.00,VWS V14.01,2013-10-16 05:22:00,
2013-10-16 00:27:00,43.8,42.5,29.85,North,350,10.0,15.0,95,0.00,,,0.00,VWS V14.01,2013-10-16 05:27:00,
2013-10-16 00:30:00,43.7,42.4,29.85,North,351,11.0,15.0,95,0.00,,,0.00,VWS V14.01,2013-10-16 05:30:00,
2013-10-16 00:32:00,43.7,42.4,29.85,NNW,345,8.0,11.0,95,0.00,,,0.00,VWS V14.01,2013-10-16 05:32:00,
2013-10-16 00:37:00,43.6,42.3,29.85,NW,324,6.0,11.0,95,0.00,,,0.00,VWS V14.01,2013-10-16 05:37:00,
2013-10-16 00:42:00,43.6,42.3,29.85,North,360,12.0,15.0,95,0.00,,,0.00,VWS V14.01,2013-10-16 05:42:00,
2013-10-16 00:47:00,43.5,42.2,29.85,North,355,10.0,15.0,95,0.00,,,0.00,VWS V14.01,2013-10-16 05:47:00,
2013-10-16 00:52:00,43.5,42.2,29.85,NNE,20,12.0,15.0,95,0.00,,,0.00,VWS V14.01,2013-10-16 05:52:00,
2013-10-16 00:57:00,43.5,42.2,29.86,North,355,11.0,16.0,95,0.00,,,0.00,VWS V14.01,2013-10-16 05:57:00,
2013-10-16 01:00:00,43.6,42.3,29.86,North,355,8.0,16.0,95,0.00,,,0.00,VWS V14.01,2013-10-16 06:00:00,
2013-10-16 01:02:00,43.6,42.3,29.86,NNE,13,9.0,11.0,95,0.00,,,0.00,VWS V14.01,2013-10-16 06:02:00,
2013-10-16 01:07:00,43.6,42.3,29.86,NNE,13,8.0,13.0,95,0.00,,,0.00,VWS V14.01,2013-10-16 06:07:00,
2013-10-16 01:13:00,43.5,42.2,29.86,North,350,10.0,15.0,95,0.00,,,0.00,VWS V14.01,2013-10-16 06:13:00,
2013-10-16 01:18:00,43.5,42.2,29.86,NNW,346,5.0,15.0,95,0.00,,,0.00,VWS V14.01,2013-10-16 06:18:00,
2013-10-16 01:23:00,43.5,42.2,29.86,NNW,340,9.0,15.0,95,0.00,,,0.00,VWS V14.01,2013-10-16 06:23:00,
2013-10-16 01:28:00,43.5,42.2,29.86,North,350,6.0,17.0,95,0.00,,,0.00,VWS V14.01,2013-10-16 06:28:00,
2013-10-16 01:30:00,43.5,42.2,29.86,NNW,339,12.0,17.0,95,0.00,,,0.00,VWS V14.01,2013-10-16 06:30:00,
2013-10-16 01:33:00,43.5,42.2,29.87,NW,320,10.0,13.0,95,0.00,,,0.00,VWS V14.01,2013-10-16 06:33:00,
2013-10-16 01:38:00,43.5,42.2,29.86,NNW,339,9.0,13.0,95,0.00,,,0.00,VWS V14.01,2013-10-16 06:38:00,
2013-10-16 01:43:00,43.5,42.2,29.86,North,355,6.0,15.0,95,0.00,,,0.00,VWS V14.01,2013-10-16 06:43:00,
2013-10-16 01:48:00,43.6,42.3,29.87,North,351,11.0,15.0,95,0.00,,,0.00,VWS V14.01,2013-10-16 06:48:00,
2013-10-16 01:53:00,43.6,42.0,29.86,North,355,12.0,15.0,94,0.00,,,0.00,VWS V14.01,2013-10-16 06:53:00,
2013-10-16 01:58:00,43.6,42.0,29.86,NNW,337,11.0,15.0,94,0.00,,,0.00,VWS V14.01,2013-10-16 06:58:00,
2013-10-16 02:00:00,43.6,42.0,29.87,NNW,348,8.0,15.0,94,0.00,,,0.00,VWS V14.01,2013-10-16 07:00:00,
2013-10-16 02:03:00,43.6,42.0,29.87,NNW,348,6.0,12.0,94,0.00,,,0.00,VWS V14.01,2013-10-16 07:03:00,
2013-10-16 02:08:00,43.6,42.0,29.87,North,355,9.0,13.0,94,0.00,,,0.00,VWS V14.01,2013-10-16 07:08:00,
2013-10-16 02:13:00,43.6,42.0,29.87,North,351,12.0,13.0,94,0.00,,,0.00,VWS V14.01,2013-10-16 07:13:00,
2013-10-16 02:18:00,43.5,41.9,29.87,North,355,6.0,13.0,94,0.00,,,0.00,VWS V14.01,2013-10-16 07:18:00,
2013-10-16 02:23:00,43.5,41.9,29.87,North,360,10.0,15.0,94,0.00,,,0.00,VWS V14.01,2013-10-16 07:23:00,
2013-10-16 02:28:00,43.4,41.8,29.88,NNW,343,10.0,15.0,94,0.00,,,0.00,VWS V14.01,2013-10-16 07:28:00,
2013-10-16 02:30:00,43.4,41.8,29.88,NNW,343,11.0,15.0,94,0.00,,,0.00,VWS V14.01,2013-10-16 07:30:00,
2013-10-16 02:33:00,43.4,41.8,29.88,North,355,11.0,15.0,94,0.00,,,0.00,VWS V14.01,2013-10-16 07:33:00,
2013-10-16 02:38:00,43.5,41.6,29.88,NNW,328,9.0,16.0,93,0.00,,,0.00,VWS V14.01,2013-10-16 07:38:00,
2013-10-16 02:43:00,43.4,41.8,29.88,North,349,12.0,16.0,94,0.00,,,0.00,VWS V14.01,2013-10-16 07:43:00,
2013-10-16 02:48:00,43.4,41.5,29.88,NNW,340,10.0,16.0,93,0.00,,,0.00,VWS V14.01,2013-10-16 07:48:00,
2013-10-16 02:53:00,43.4,41.5,29.88,NNW,338,11.0,16.0,93,0.00,,,0.00,VWS V14.01,2013-10-16 07:53:00,
2013-10-16 02:58:00,43.4,41.8,29.88,North,360,10.0,16.0,94,0.00,,,0.00,VWS V14.01,2013-10-16 07:58:00,
2013-10-16 03:00:00,43.4,41.5,29.89,North,355,9.0,16.0,93,0.00,,,0.00,VWS V14.01,2013-10-16 08:00:00,
2013-10-16 03:03:00,43.3,41.7,29.88,NNW,344,10.0,13.0,94,0.00,,,0.00,VWS V14.01,2013-10-16 08:03:00,
2013-10-16 03:08:00,43.3,41.4,29.89,NNW,348,13.0,16.0,93,0.00,,,0.00,VWS V14.01,2013-10-16 08:08:00,
2013-10-16 03:13:00,43.3,41.7,29.89,NNW,340,11.0,17.0,94,0.00,,,0.00,VWS V14.01,2013-10-16 08:13:00,
2013-10-16 03:18:00,43.3,41.7,29.89,North,9,12.0,17.0,94,0.00,,,0.00,VWS V14.01,2013-10-16 08:18:00,
2013-10-16 03:23:00,43.2,41.6,29.88,North,350,6.0,17.0,94,0.00,,,0.00,VWS V14.01,2013-10-16 08:23:00,
2013-10-16 03:28:00,43.1,41.8,29.89,NNW,343,12.0,17.0,95,0.00,,,0.00,VWS V14.01,2013-10-16 08:28:00,
2013-10-16 03:30:00,43.1,41.8,29.89,North,355,8.0,17.0,95,0.00,,,0.00,VWS V14.01,2013-10-16 08:30:00,
2013-10-16 03:33:00,43.1,41.8,29.89,NNW,346,11.0,13.0,95,0.00,,,0.00,VWS V14.01,2013-10-16 08:33:00,
2013-10-16 03:39:00,43.1,41.8,29.88,NNW,338,11.0,13.0,95,0.00,,,0.00,VWS V14.01,2013-10-16 08:39:00,
2013-10-16 03:44:00,43.0,41.7,29.89,NW,321,11.0,17.0,95,0.00,,,0.00,VWS V14.01,2013-10-16 08:44:00,
2013-10-16 03:49:00,43.1,41.8,29.89,North,5,12.0,17.0,95,0.00,,,0.00,VWS V14.01,2013-10-16 08:49:00,
2013-10-16 03:54:00,43.1,41.5,29.89,NNW,344,10.0,18.0,94,0.00,,,0.00,VWS V14.01,2013-10-16 08:54:00,
2013-10-16 03:59:00,43.1,41.5,29.89,North,5,12.0,18.0,94,0.00,,,0.00,VWS V14.01,2013-10-16 08:59:00,
2013-10-16 04:00:00,43.1,41.5,29.89,NNE,15,9.0,18.0,94,0.00,,,0.00,VWS V14.01,2013-10-16 09:00:00,
2013-10-16 04:04:00,43.1,41.5,29.89,NNW,346,9.0,14.0,94,0.00,,,0.00,VWS V14.01,2013-10-16 09:04:00,
2013-10-16 04:09:00,43.0,41.4,29.89,North,355,13.0,18.0,94,0.00,,,0.00,VWS V14.01,2013-10-16 09:09:00,
2013-10-16 04:14:00,43.0,41.4,29.89,North,349,8.0,18.0,94,0.00,,,0.00,VWS V14.01,2013-10-16 09:14:00,
2013-10-16 04:19:00,42.9,41.3,29.89,NNW,344,9.0,18.0,94,0.00,,,0.00,VWS V14.01,2013-10-16 09:19:00,
2013-10-16 04:24:00,42.9,41.3,29.89,North,355,8.0,18.0,94,0.00,,,0.00,VWS V14.01,2013-10-16 09:24:00,
2013-10-16 04:29:00,42.8,41.2,29.89,NNW,329,6.0,18.0,94,0.00,,,0.00,VWS V14.01,2013-10-16 09:29:00,
2013-10-16 04:30:00,42.8,41.2,29.89,NNW,347,9.0,18.0,94,0.00,,,0.00,VWS V14.01,2013-10-16 09:30:00,
2013-10-16 04:34:00,42.8,41.5,29.89,NNW,348,8.0,11.0,95,0.00,,,0.00,VWS V14.01,2013-10-16 09:34:00,
2013-10-16 04:39:00,42.8,41.5,29.89,North,360,6.0,11.0,95,0.00,,,0.00,VWS V14.01,2013-10-16 09:39:00,
2013-10-16 04:44:00,42.8,41.2,29.89,North,5,11.0,11.0,94,0.00,,,0.00,VWS V14.01,2013-10-16 09:44:00,
2013-10-16 04:49:00,42.8,41.2,29.89,NNW,332,11.0,13.0,94,0.00,,,0.00,VWS V14.01,2013-10-16 09:49:00,
2013-10-16 04:54:00,42.8,40.9,29.89,North,350,8.0,13.0,93,0.00,,,0.00,VWS V14.01,2013-10-16 09:54:00,
2013-10-16 04:59:00,42.9,41.0,29.89,NNE,28,9.0,13.0,93,0.00,,,0.00,VWS V14.01,2013-10-16 09:59:00,
2013-10-16 05:00:00,42.8,40.9,29.89,North,355,10.0,13.0,93,0.00,,,0.00,VWS V14.01,2013-10-16 10:00:00,
2013-10-16 05:04:00,42.9,41.0,29.89,North,360,10.0,10.0,93,0.00,,,0.00,VWS V14.01,2013-10-16 10:04:00,
2013-10-16 05:09:00,42.9,40.7,29.89,North,355,9.0,14.0,92,0.00,,,0.00,VWS V14.01,2013-10-16 10:09:00,
2013-10-16 05:14:00,42.9,40.7,29.89,North,11,5.0,14.0,92,0.00,,,0.00,VWS V14.01,2013-10-16 10:14:00,
2013-10-16 05:19:00,42.8,40.6,29.89,North,355,9.0,14.0,92,0.00,,,0.00,VWS V14.01,2013-10-16 10:19:00,
2013-10-16 05:24:00,42.8,40.6,29.89,North,5,9.0,14.0,92,0.00,,,0.00,VWS V14.01,2013-10-16 10:24:00,
2013-10-16 05:29:00,42.7,40.5,29.89,North,355,4.0,14.0,92,0.00,,,0.00,VWS V14.01,2013-10-16 10:29:00,
2013-10-16 05:30:00,42.7,40.5,29.90,NNW,344,8.0,14.0,92,0.00,,,0.00,VWS V14.01,2013-10-16 10:30:00,
2013-10-16 05:34:00,42.7,40.5,29.89,NNW,348,8.0,10.0,92,0.00,,,0.00,VWS V14.01,2013-10-16 10:34:00,
2013-10-16 05:39:00,42.7,40.5,29.89,NNW,338,6.0,10.0,92,0.00,,,0.00,VWS V14.01,2013-10-16 10:39:00,
2013-10-16 05:44:00,42.6,40.4,29.90,North,351,5.0,10.0,92,0.00,,,0.00,VWS V14.01,2013-10-16 10:44:00,
2013-10-16 05:49:00,42.6,40.4,29.89,North,355,5.0,11.0,92,0.00,,,0.00,VWS V14.01,2013-10-16 10:49:00,
2013-10-16 05:54:00,42.6,40.4,29.90,NNW,348,9.0,11.0,92,0.00,,,0.00,VWS V14.01,2013-10-16 10:54:00,
2013-10-16 05:59:00,42.6,40.4,29.90,North,5,5.0,11.0,92,0.00,,,0.00,VWS V14.01,2013-10-16 10:59:00,
2013-10-16 06:00:00,42.6,40.4,29.90,NNW,340,5.0,11.0,92,0.00,,,0.00,VWS V14.01,2013-10-16 11:00:00,
2013-10-16 06:04:00,42.5,40.3,29.90,NNW,341,8.0,10.0,92,0.00,,,0.00,VWS V14.01,2013-10-16 11:04:00,
2013-10-16 06:09:00,42.6,40.4,29.89,NNW,340,9.0,12.0,92,0.00,,,0.00,VWS V14.01,2013-10-16 11:09:00,
2013-10-16 06:14:00,42.6,40.4,29.90,North,350,6.0,13.0,92,0.00,,,0.00,VWS V14.01,2013-10-16 11:14:00,
2013-10-16 06:19:00,42.5,40.3,29.90,North,360,10.0,13.0,92,0.00,,,0.00,VWS V14.01,2013-10-16 11:19:00,
2013-10-16 06:24:00,42.5,40.1,29.90,North,5,9.0,13.0,91,0.00,,,0.00,VWS V14.01,2013-10-16 11:24:00,
2013-10-16 06:29:00,42.5,40.3,29.90,NNW,331,6.0,13.0,92,0.00,,,0.00,VWS V14.01,2013-10-16 11:29:00,
2013-10-16 06:30:00,42.5,40.3,29.90,North,351,8.0,13.0,92,0.00,,,0.00,VWS V14.01,2013-10-16 11:30:00,
2013-10-16 06:34:00,42.5,40.1,29.90,NNW,343,8.0,11.0,91,0.00,,,0.00,VWS V14.01,2013-10-16 11:34:00,
2013-10-16 06:39:00,42.4,40.0,29.90,WNW,301,9.0,12.0,91,0.00,,,0.00,VWS V14.01,2013-10-16 11:39:00,
2013-10-16 06:44:00,42.3,39.6,29.90,NNW,343,13.0,14.0,90,0.00,,,0.00,VWS V14.01,2013-10-16 11:44:00,
2013-10-16 06:49:00,42.3,39.6,29.90,NW,312,9.0,14.0,90,0.00,,,0.00,VWS V14.01,2013-10-16 11:49:00,
2013-10-16 06:54:00,42.1,39.4,29.90,NNW,341,11.0,14.0,90,0.00,,,0.00,VWS V14.01,2013-10-16 11:54:00,
2013-10-16 06:59:00,42.0,39.6,29.90,North,350,5.0,14.0,91,0.00,,,0.00,VWS V14.01,2013-10-16 11:59:00,
2013-10-16 07:00:00,42.0,39.6,29.90,North,5,14.0,14.0,91,0.00,,,0.00,VWS V14.01,2013-10-16 12:00:00,
2013-10-16 07:04:00,42.0,39.3,29.90,North,351,11.0,14.0,90,0.00,,,0.00,VWS V14.01,2013-10-16 12:04:00,
2013-10-16 07:09:00,42.0,39.0,29.90,NNE,17,9.0,14.0,89,0.00,,,0.00,VWS V14.01,2013-10-16 12:09:00,
2013-10-16 07:14:00,41.9,38.9,29.90,NNW,344,8.0,14.0,89,0.00,,,0.00,VWS V14.01,2013-10-16 12:14:00,
2013-10-16 07:19:00,41.9,38.9,29.91,NNW,343,5.0,14.0,89,0.00,,,0.00,VWS V14.01,2013-10-16 12:19:00,
2013-10-16 07:25:00,41.9,38.9,29.91,North,355,8.0,14.0,89,0.00,,,0.00,VWS V14.01,2013-10-16 12:25:00,
2013-10-16 07:30:00,41.9,39.2,29.91,NNW,348,6.0,14.0,90,0.00,,,0.00,VWS V14.01,2013-10-16 12:30:00,
2013-10-16 07:35:00,41.8,39.1,29.90,NNW,343,4.0,8.0,90,0.00,,,0.00,VWS V14.01,2013-10-16 12:35:00,
2013-10-16 07:40:00,41.8,39.4,29.91,NW,323,3.0,8.0,91,0.00,,,0.00,VWS V14.01,2013-10-16 12:40:00,
2013-10-16 07:46:00,41.7,39.3,29.91,North,350,4.0,9.0,91,0.00,,,0.00,VWS V14.01,2013-10-16 12:46:00,
2013-10-16 07:51:00,41.7,39.3,29.91,NNW,346,8.0,9.0,91,0.00,,,0.00,VWS V14.01,2013-10-16 12:51:00,
2013-10-16 07:56:00,41.7,39.0,29.91,North,350,8.0,12.0,90,0.00,,,0.00,VWS V14.01,2013-10-16 12:56:00,
2013-10-16 08:00:00,41.7,39.0,29.91,NNW,343,4.0,12.0,90,0.00,,,0.00,VWS V14.01,2013-10-16 13:00:00,
2013-10-16 08:01:00,41.7,39.0,29.91,NNW,343,4.0,12.0,90,0.00,,,0.00,VWS V14.01,2013-10-16 13:01:00,
2013-10-16 08:06:00,41.7,39.0,29.91,NW,318,5.0,10.0,90,0.00,,,0.00,VWS V14.01,2013-10-16 13:06:00,
2013-10-16 08:11:00,41.7,39.0,29.92,North,349,8.0,13.0,90,0.00,,,0.00,VWS V14.01,2013-10-16 13:11:00,
2013-10-16 08:16:00,41.7,38.7,29.92,North,355,6.0,13.0,89,0.00,,,0.00,VWS V14.01,2013-10-16 13:16:00,
2013-10-16 08:21:00,41.8,38.8,29.92,NNW,343,5.0,13.0,89,0.00,,,0.00,VWS V14.01,2013-10-16 13:21:00,
2013-10-16 08:26:00,41.8,39.1,29.92,NNW,340,4.0,13.0,90,0.00,,,0.00,VWS V14.01,2013-10-16 13:26:00,
2013-10-16 08:30:00,41.8,38.8,29.92,North,5,6.0,13.0,89,0.00,,,0.00,VWS V14.01,2013-10-16 13:30:00,
2013-10-16 08:31:00,41.8,38.8,29.92,North,355,8.0,8.0,89,0.00,,,0.00,VWS V14.01,2013-10-16 13:31:00,
2013-10-16 08:36:00,41.8,38.8,29.92,North,5,9.0,12.0,89,0.00,,,0.00,VWS V14.01,2013-10-16 13:36:00,
2013-10-16 08:41:00,41.9,38.9,29.92,North,5,8.0,12.0,89,0.00,,,0.00,VWS V14.01,2013-10-16 13:41:00,
2013-10-16 08:46:00,41.9,38.9,29.92,North,5,4.0,12.0,89,0.00,,,0.00,VWS V14.01,2013-10-16 13:46:00,
2013-10-16 08:51:00,42.0,39.0,29.92,NNW,336,5.0,12.0,89,0.00,,,0.00,VWS V14.01,2013-10-16 13:51:00,
2013-10-16 08:56:00,42.0,39.0,29.93,North,349,1.0,12.0,89,0.00,,,0.00,VWS V14.01,2013-10-16 13:56:00,
2013-10-16 09:00:00,42.1,38.8,29.93,North,5,5.0,12.0,88,0.00,,,0.00,VWS V14.01,2013-10-16 14:00:00,
2013-10-16 09:01:00,42.1,38.8,29.93,North,360,4.0,5.0,88,0.00,,,0.00,VWS V14.01,2013-10-16 14:01:00,
2013-10-16 09:06:00,42.2,38.9,29.93,North,9,5.0,9.0,88,0.00,,,0.00,VWS V14.01,2013-10-16 14:06:00,
2013-10-16 09:11:00,42.2,39.2,29.93,NNW,342,4.0,9.0,89,0.00,,,0.00,VWS V14.01,2013-10-16 14:11:00,
2013-10-16 09:16:00,42.2,39.2,29.93,NW,310,2.0,9.0,89,0.00,,,0.00,VWS V14.01,2013-10-16 14:16:00,
2013-10-16 09:21:00,42.2,39.5,29.93,North,351,2.0,9.0,90,0.00,,,0.00,VWS V14.01,2013-10-16 14:21:00,
2013-10-16 09:26:00,42.2,39.5,29.93,NW,325,3.0,9.0,90,0.00,,,0.00,VWS V14.01,2013-10-16 14:26:00,
2013-10-16 09:30:00,42.3,39.3,29.93,North,349,5.0,9.0,89,0.00,,,0.00,VWS V14.01,2013-10-16 14:30:00,
2013-10-16 09:31:00,42.3,39.3,29.93,NNW,339,4.0,5.0,89,0.00,,,0.00,VWS V14.01,2013-10-16 14:31:00,
2013-10-16 09:36:00,42.3,39.3,29.93,NNW,337,2.0,5.0,89,0.00,,,0.00,VWS V14.01,2013-10-16 14:36:00,
2013-10-16 09:42:00,42.3,39.3,29.93,North,360,5.0,8.0,89,0.00,,,0.00,VWS V14.01,2013-10-16 14:42:00,
2013-10-16 09:47:00,42.3,39.6,29.94,NNW,338,4.0,8.0,90,0.00,,,0.00,VWS V14.01,2013-10-16 14:47:00,
2013-10-16 09:52:00,42.3,39.3,29.94,NNW,341,3.0,8.0,89,0.00,,,0.00,VWS V14.01,2013-10-16 14:52:00,
2013-10-16 09:57:00,42.3,39.3,29.94,NNW,345,1.0,8.0,89,0.00,,,0.00,VWS V14.01,2013-10-16 14:57:00,
2013-10-16 10:00:00,42.3,39.3,29.94,NNW,341,2.0,8.0,89,0.00,,,0.00,VWS V14.01,2013-10-16 15:00:00,
2013-10-16 10:02:00,42.3,39.3,29.94,NNW,334,3.0,3.0,89,0.00,,,0.00,VWS V14.01,2013-10-16 15:02:00,
2013-10-16 10:07:00,42.3,39.6,29.94,NNW,332,3.0,5.0,90,0.00,,,0.00,VWS V14.01,2013-10-16 15:07:00,
2013-10-16 10:12:00,42.3,39.0,29.94,NW,323,4.0,6.0,88,0.00,,,0.00,VWS V14.01,2013-10-16 15:12:00,
2013-10-16 10:17:00,42.3,39.3,29.94,WNW,303,2.0,6.0,89,0.00,,,0.00,VWS V14.01,2013-10-16 15:17:00,
2013-10-16 10:22:00,42.4,39.1,29.94,WNW,287,7.0,7.0,88,0.00,,,0.00,VWS V14.01,2013-10-16 15:22:00,
2013-10-16 10:27:00,42.2,38.9,29.94,WNW,302,2.0,7.0,88,0.00,,,0.00,VWS V14.01,2013-10-16 15:27:00,
2013-10-16 10:30:00,42.2,38.9,29.94,NNW,339,3.0,7.0,88,0.00,,,0.00,VWS V14.01,2013-10-16 15:30:00,
2013-10-16 10:32:00,42.3,39.3,29.94,NNW,339,2.0,3.0,89,0.00,,,0.00,VWS V14.01,2013-10-16 15:32:00,
2013-10-16 10:37:00,42.4,38.8,29.94,West,275,3.0,5.0,87,0.00,,,0.00,VWS V14.01,2013-10-16 15:37:00,
2013-10-16 10:42:00,42.3,38.7,29.94,NW,304,4.0,6.0,87,0.00,,,0.00,VWS V14.01,2013-10-16 15:42:00,
2013-10-16 10:47:00,42.4,38.5,29.94,NW,311,3.0,6.0,86,0.00,,,0.00,VWS V14.01,2013-10-16 15:47:00,
2013-10-16 10:52:00,42.5,39.2,29.94,NNW,327,5.0,6.0,88,0.00,,,0.00,VWS V14.01,2013-10-16 15:52:00,
2013-10-16 10:57:00,42.7,38.8,29.94,NNW,343,2.0,6.0,86,0.00,,,0.00,VWS V14.01,2013-10-16 15:57:00,
2013-10-16 11:00:00,42.8,39.2,29.94,NNW,338,3.0,6.0,87,0.00,,,0.00,VWS V14.01,2013-10-16 16:00:00,
2013-10-16 11:02:00,42.8,38.9,29.94,NNW,338,4.0,4.0,86,0.00,,,0.00,VWS V14.01,2013-10-16 16:02:00,
2013-10-16 11:07:00,43.5,39.3,29.93,NNE,29,2.0,5.0,85,0.00,,,0.00,VWS V14.01,2013-10-16 16:07:00,
2013-10-16 11:12:00,44.1,39.6,29.93,NNW,327,2.0,8.0,84,0.00,,,0.00,VWS V14.01,2013-10-16 16:12:00,
2013-10-16 11:17:00,44.9,40.7,29.93,NNE,30,6.0,10.0,85,0.00,,,0.00,VWS V14.01,2013-10-16 16:17:00,
2013-10-16 11:22:00,44.2,38.4,29.93,NW,326,5.0,10.0,80,0.00,,,0.00,VWS V14.01,2013-10-16 16:22:00,
2013-10-16 11:27:00,44.8,40.6,29.93,ENE,69,1.0,10.0,85,0.00,,,0.00,VWS V14.01,2013-10-16 16:27:00,
2013-10-16 11:30:00,45.8,39.7,29.93,NE,55,4.0,10.0,79,0.00,,,0.00,VWS V14.01,2013-10-16 16:30:00,
2013-10-16 11:32:00,45.5,39.4,29.93,NE,48,2.0,4.0,79,0.00,,,0.00,VWS V14.01,2013-10-16 16:32:00,
2013-10-16 11:37:00,44.9,39.4,29.93,NW,310,3.0,4.0,81,0.00,,,0.00,VWS V14.01,2013-10-16 16:37:00,
2013-10-16 11:42:00,45.2,39.4,29.92,WNW,282,2.0,7.0,80,0.00,,,0.00,VWS V14.01,2013-10-16 16:42:00,
2013-10-16 11:47:00,46.5,40.3,29.93,NW,311,3.0,7.0,79,0.00,,,0.00,VWS V14.01,2013-10-16 16:47:00,
2013-10-16 11:52:00,46.7,40.2,29.93,NNE,23,5.0,8.0,78,0.00,,,0.00,VWS V14.01,2013-10-16 16:52:00,
2013-10-16 11:57:00,46.4,39.6,29.92,North,360,1.0,8.0,77,0.00,,,0.00,VWS V14.01,2013-10-16 16:57:00,
2013-10-16 12:00:00,47.4,41.2,29.92,NNW,334,3.0,8.0,79,0.00,,,0.00,VWS V14.01,2013-10-16 17:00:00,
2013-10-16 12:02:00,47.7,41.2,29.92,North,355,5.0,8.0,78,0.00,,,0.00,VWS V14.01,2013-10-16 17:02:00,
2013-10-16 12:07:00,47.5,40.0,29.92,NW,320,0.0,9.0,75,0.00,,,0.00,VWS V14.01,2013-10-16 17:07:00,
2013-10-16 12:12:00,47.8,39.6,29.92,WNW,298,5.0,9.0,73,0.00,,,0.00,VWS V14.01,2013-10-16 17:12:00,
2013-10-16 12:17:00,48.3,39.3,29.92,NNW,348,4.0,9.0,71,0.00,,,0.00,VWS V14.01,2013-10-16 17:17:00,
2013-10-16 12:22:00,48.3,39.7,29.92,NNW,330,6.0,9.0,72,0.00,,,0.00,VWS V14.01,2013-10-16 17:22:00,
2013-10-16 12:27:00,48.9,40.6,29.92,North,360,5.0,9.0,73,0.00,,,0.00,VWS V14.01,2013-10-16 17:27:00,
2013-10-16 12:30:00,48.9,39.9,29.92,North,11,7.0,10.0,71,0.00,,,0.00,VWS V14.01,2013-10-16 17:30:00,
2013-10-16 12:32:00,48.9,39.2,29.92,NW,321,6.0,9.0,69,0.00,,,0.00,VWS V14.01,2013-10-16 17:32:00,
2013-10-16 12:37:00,48.8,38.7,29.92,West,281,6.0,9.0,68,0.00,,,0.00,VWS V14.01,2013-10-16 17:37:00,
2013-10-16 12:42:00,49.7,39.6,29.92,West,275,1.0,9.0,68,0.00,,,0.00,VWS V14.01,2013-10-16 17:42:00,
2013-10-16 12:47:00,49.5,39.8,29.92,West,277,1.0,9.0,69,0.00,,,0.00,VWS V14.01,2013-10-16 17:47:00,
2013-10-16 12:52:00,49.9,39.4,29.92,NW,304,2.0,9.0,67,0.00,,,0.00,VWS V14.01,2013-10-16 17:52:00,
2013-10-16 12:57:00,49.7,40.0,29.91,NNW,338,4.0,9.0,69,0.00,,,0.00,VWS V14.01,2013-10-16 17:57:00,
2013-10-16 13:00:00,49.9,39.0,29.91,North,360,3.0,9.0,66,0.00,,,0.00,VWS V14.01,2013-10-16 18:00:00,
2013-10-16 13:02:00,50.0,39.9,29.91,West,266,4.0,6.0,68,0.00,,,0.00,VWS V14.01,2013-10-16 18:02:00,
2013-10-16 13:07:00,50.5,40.0,29.91,WNW,292,4.0,7.0,67,0.00,,,0.00,VWS V14.01,2013-10-16 18:07:00,
2013-10-16 13:13:00,51.7,42.2,29.91,WNW,302,3.0,7.0,70,0.00,,,0.00,VWS V14.01,2013-10-16 18:13:00,
2013-10-16 13:18:00,51.2,40.2,29.90,WNW,287,3.0,7.0,66,0.00,,,0.00,VWS V14.01,2013-10-16 18:18:00,
2013-10-16 13:23:00,50.7,38.6,29.90,NW,325,5.0,8.0,63,0.00,,,0.00,VWS V14.01,2013-10-16 18:23:00,
2013-10-16 13:27:00,50.8,39.1,29.90,NNW,327,3.0,9.0,64,0.00,,,0.00,VWS V14.01,2013-10-16 18:27:00,
2013-10-16 13:30:00,51.1,39.0,29.90,NNW,329,6.0,9.0,63,0.00,,,0.00,VWS V14.01,2013-10-16 18:30:00,
2013-10-16 13:32:00,51.3,39.5,29.90,West,259,3.0,9.0,64,0.00,,,0.00,VWS V14.01,2013-10-16 18:32:00,
2013-10-16 13:37:00,52.5,40.7,29.90,WNW,297,3.0,9.0,64,0.00,,,0.00,VWS V14.01,2013-10-16 18:37:00,
2013-10-16 13:42:00,52.1,38.7,29.90,WNW,298,3.0,9.0,60,0.00,,,0.00,VWS V14.01,2013-10-16 18:42:00,
2013-10-16 13:47:00,51.9,38.9,29.90,West,281,7.0,12.0,61,0.00,,,0.00,VWS V14.01,2013-10-16 18:47:00,
2013-10-16 13:52:00,52.5,39.0,29.90,West,267,3.0,12.0,60,0.00,,,0.00,VWS V14.01,2013-10-16 18:52:00,
2013-10-16 13:57:00,52.6,39.1,29.90,West,275,6.0,12.0,60,0.00,,,0.00,VWS V14.01,2013-10-16 18:57:00,
2013-10-16 14:00:00,52.3,38.8,29.89,West,267,4.0,12.0,60,0.00,,,0.00,VWS V14.01,2013-10-16 19:00:00,
2013-10-16 14:02:00,52.2,38.3,29.89,West,260,4.0,10.0,59,0.00,,,0.00,VWS V14.01,2013-10-16 19:02:00,
2013-10-16 14:07:00,52.1,38.2,29.89,NNW,340,5.0,10.0,59,0.00,,,0.00,VWS V14.01,2013-10-16 19:07:00,
2013-10-16 14:12:00,52.5,38.6,29.89,West,279,7.0,11.0,59,0.00,,,0.00,VWS V14.01,2013-10-16 19:12:00,
2013-10-16 14:17:00,52.8,39.3,29.89,WNW,293,2.0,11.0,60,0.00,,,0.00,VWS V14.01,2013-10-16 19:17:00,
2013-10-16 14:22:00,52.9,39.8,29.89,West,263,9.0,12.0,61,0.00,,,0.00,VWS V14.01,2013-10-16 19:22:00,
2013-10-16 14:27:00,52.8,38.9,29.89,NW,308,4.0,12.0,59,0.00,,,0.00,VWS V14.01,2013-10-16 19:27:00,
2013-10-16 14:30:00,52.1,39.5,29.89,NW,309,4.0,12.0,62,0.00,,,0.00,VWS V14.01,2013-10-16 19:30:00,
2013-10-16 14:32:00,52.2,39.2,29.88,NW,320,5.0,5.0,61,0.00,,,0.00,VWS V14.01,2013-10-16 19:32:00,
2013-10-16 14:37:00,52.3,39.3,29.89,NNW,339,8.0,10.0,61,0.00,,,0.00,VWS V14.01,2013-10-16 19:37:00,
2013-10-16 14:42:00,52.4,38.9,29.88,NNW,331,10.0,10.0,60,0.00,,,0.00,VWS V14.01,2013-10-16 19:42:00,
2013-10-16 14:47:00,52.9,39.4,29.88,NNW,328,3.0,10.0,60,0.00,,,0.00,VWS V14.01,2013-10-16 19:47:00,
2013-10-16 14:52:00,52.6,39.1,29.88,NW,325,5.0,10.0,60,0.00,,,0.00,VWS V14.01,2013-10-16 19:52:00,
2013-10-16 14:57:00,52.6,37.8,29.88,WNW,300,5.0,10.0,57,0.00,,,0.00,VWS V14.01,2013-10-16 19:57:00,
2013-10-16 15:00:00,53.1,39.6,29.88,NW,304,4.0,10.0,60,0.00,,,0.00,VWS V14.01,2013-10-16 20:00:00,
2013-10-16 15:02:00,53.1,38.7,29.88,West,265,9.0,9.0,58,0.00,,,0.00,VWS V14.01,2013-10-16 20:02:00,
2013-10-16 15:07:00,52.8,37.5,29.88,NW,314,2.0,10.0,56,0.00,,,0.00,VWS V14.01,2013-10-16 20:07:00,
2013-10-16 15:12:00,52.6,37.4,29.88,West,262,3.0,11.0,56,0.00,,,0.00,VWS V14.01,2013-10-16 20:12:00,
2013-10-16 15:17:00,52.5,36.3,29.88,West,278,4.0,11.0,54,0.00,,,0.00,VWS V14.01,2013-10-16 20:17:00,
2013-10-16 15:22:00,52.7,37.9,29.88,NW,321,9.0,11.0,57,0.00,,,0.00,VWS V14.01,2013-10-16 20:22:00,
2013-10-16 15:27:00,52.6,36.5,29.88,WNW,288,4.0,11.0,54,0.00,,,0.00,VWS V14.01,2013-10-16 20:27:00,
2013-10-16 15:30:00,52.5,35.4,29.88,WNW,284,4.0,11.0,52,0.00,,,0.00,VWS V14.01,2013-10-16 20:30:00,
2013-10-16 15:32:00,52.5,35.9,29.88,WNW,290,2.0,5.0,53,0.00,,,0.00,VWS V14.01,2013-10-16 20:32:00,
2013-10-16 15:37:00,53.5,37.8,29.88,WNW,302,8.0,10.0,55,0.00,,,0.00,VWS V14.01,2013-10-16 20:37:00,
2013-10-16 15:42:00,53.0,36.3,29.88,WNW,295,4.0,10.0,53,0.00,,,0.00,VWS V14.01,2013-10-16 20:42:00,
2013-10-16 15:47:00,52.9,37.7,29.88,NNW,331,5.0,10.0,56,0.00,,,0.00,VWS V14.01,2013-10-16 20:47:00,
2013-10-16 15:52:00,53.0,37.7,29.87,NNW,329,5.0,11.0,56,0.00,,,0.00,VWS V14.01,2013-10-16 20:52:00,
2013-10-16 15:57:00,53.1,38.3,29.87,WNW,298,8.0,11.0,57,0.00,,,0.00,VWS V14.01,2013-10-16 20:57:00,
2013-10-16 16:00:00,53.1,37.8,29.87,West,265,3.0,11.0,56,0.00,,,0.00,VWS V14.01,2013-10-16 21:00:00,
2013-10-16 16:02:00,53.2,38.4,29.87,NW,320,3.0,3.0,57,0.00,,,0.00,VWS V14.01,2013-10-16 21:02:00,
2013-10-16 16:07:00,53.3,38.9,29.87,NNW,331,5.0,9.0,58,0.00,,,0.00,VWS V14.01,2013-10-16 21:07:00,
2013-10-16 16:12:00,53.2,38.8,29.86,West,272,2.0,9.0,58,0.00,,,0.00,VWS V14.01,2013-10-16 21:12:00,
2013-10-16 16:17:00,53.4,39.0,29.86,NW,322,6.0,9.0,58,0.00,,,0.00,VWS V14.01,2013-10-16 21:17:00,
2013-10-16 16:22:00,53.3,39.3,29.87,NW,309,3.0,9.0,59,0.00,,,0.00,VWS V14.01,2013-10-16 21:22:00,
2013-10-16 16:27:00,53.4,38.6,29.87,NNW,335,4.0,9.0,57,0.00,,,0.00,VWS V14.01,2013-10-16 21:27:00,
2013-10-16 16:30:00,53.4,38.6,29.87,WNW,283,3.0,9.0,57,0.00,,,0.00,VWS V14.01,2013-10-16 21:30:00,
2013-10-16 16:32:00,53.6,39.2,29.87,WSW,246,5.0,9.0,58,0.00,,,0.00,VWS V14.01,2013-10-16 21:32:00,
2013-10-16 16:37:00,53.3,36.1,29.87,WNW,284,7.0,11.0,52,0.00,,,0.00,VWS V14.01,2013-10-16 21:37:00,
2013-10-16 16:42:00,53.2,36.5,29.87,WSW,256,1.0,11.0,53,0.00,,,0.00,VWS V14.01,2013-10-16 21:42:00,
2013-10-16 16:47:00,53.5,36.8,29.86,NW,319,4.0,11.0,53,0.00,,,0.00,VWS V14.01,2013-10-16 21:47:00,
2013-10-16 16:52:00,53.2,36.0,29.86,NW,310,3.0,11.0,52,0.00,,,0.00,VWS V14.01,2013-10-16 21:52:00,
2013-10-16 16:58:00,52.8,36.2,29.87,WNW,299,3.0,11.0,53,0.00,,,0.00,VWS V14.01,2013-10-16 21:58:00,
2013-10-16 17:00:00,52.7,37.0,29.87,WNW,283,3.0,11.0,55,0.00,,,0.00,VWS V14.01,2013-10-16 22:00:00,
2013-10-16 17:02:00,52.7,36.1,29.86,West,281,3.0,4.0,53,0.00,,,0.00,VWS V14.01,2013-10-16 22:02:00,
2013-10-16 17:08:00,53.0,36.8,29.87,WNW,289,3.0,4.0,54,0.00,,,0.00,VWS V14.01,2013-10-16 22:08:00,
2013-10-16 17:13:00,52.8,37.1,29.87,West,262,4.0,7.0,55,0.00,,,0.00,VWS V14.01,2013-10-16 22:13:00,
2013-10-16 17:18:00,52.5,37.3,29.87,West,281,4.0,7.0,56,0.00,,,0.00,VWS V14.01,2013-10-16 22:18:00,
2013-10-16 17:23:00,52.4,37.2,29.87,NW,315,4.0,7.0,56,0.00,,,0.00,VWS V14.01,2013-10-16 22:23:00,
2013-10-16 17:28:00,52.3,37.1,29.87,WSW,248,1.0,7.0,56,0.00,,,0.00,VWS V14.01,2013-10-16 22:28:00,
2013-10-16 17:30:00,52.0,36.8,29.87,WSW,257,2.0,7.0,56,0.00,,,0.00,VWS V14.01,2013-10-16 22:30:00,
2013-10-16 17:33:00,51.9,37.2,29.87,West,279,2.0,4.0,57,0.00,,,0.00,VWS V14.01,2013-10-16 22:33:00,
2013-10-16 17:38:00,51.7,37.0,29.87,SW,229,1.0,6.0,57,0.00,,,0.00,VWS V14.01,2013-10-16 22:38:00,
2013-10-16 17:43:00,51.3,36.6,29.87,West,267,2.0,9.0,57,0.00,,,0.00,VWS V14.01,2013-10-16 22:43:00,
2013-10-16 17:48:00,51.1,36.8,29.87,West,264,2.0,9.0,58,0.00,,,0.00,VWS V14.01,2013-10-16 22:48:00,
2013-10-16 17:53:00,50.6,36.4,29.87,WNW,290,4.0,9.0,58,0.00,,,0.00,VWS V14.01,2013-10-16 22:53:00,
2013-10-16 17:58:00,50.6,36.8,29.87,WNW,300,1.0,9.0,59,0.00,,,0.00,VWS V14.01,2013-10-16 22:58:00,
2013-10-16 18:00:00,50.2,36.4,29.87,WNW,284,2.0,9.0,59,0.00,,,0.00,VWS V14.01,2013-10-16 23:00:00,
2013-10-16 18:03:00,50.0,36.7,29.87,West,271,3.0,4.0,60,0.00,,,0.00,VWS V14.01,2013-10-16 23:03:00,
2013-10-16 18:08:00,49.4,36.5,29.87,WNW,292,2.0,4.0,61,0.00,,,0.00,VWS V14.01,2013-10-16 23:08:00,
2013-10-16 18:13:00,49.2,35.9,29.87,West,274,2.0,4.0,60,0.00,,,0.00,VWS V14.01,2013-10-16 23:13:00,
2013-10-16 18:18:00,49.1,36.2,29.87,West,275,2.0,4.0,61,0.00,,,0.00,VWS V14.01,2013-10-16 23:18:00,
2013-10-16 18:23:00,48.5,35.7,29.87,West,268,0.0,4.0,61,0.00,,,0.00,VWS V14.01,2013-10-16 23:23:00,
2013-10-16 18:28:00,48.0,35.6,29.87,West,268,1.0,4.0,62,0.00,,,0.00,VWS V14.01,2013-10-16 23:28:00,
2013-10-16 18:30:00,47.9,35.9,29.87,West,268,0.0,4.0,63,0.00,,,0.00,VWS V14.01,2013-10-16 23:30:00,
2013-10-16 18:33:00,47.6,36.0,29.87,West,268,0.0,1.0,64,0.00,,,0.00,VWS V14.01,2013-10-16 23:33:00,
2013-10-16 18:39:00,46.9,35.4,29.87,West,268,0.0,2.0,64,0.00,,,0.00,VWS V14.01,2013-10-16 23:39:00,
2013-10-16 18:44:00,45.8,35.5,29.87,West,268,0.0,2.0,67,0.00,,,0.00,VWS V14.01,2013-10-16 23:44:00,
2013-10-16 18:49:00,45.2,35.7,29.87,West,268,1.0,2.0,69,0.00,,,0.00,VWS V14.01,2013-10-16 23:49:00,
2013-10-16 18:54:00,44.8,35.3,29.87,West,268,0.0,2.0,69,0.00,,,0.00,VWS V14.01,2013-10-16 23:54:00,
2013-10-16 18:59:00,44.3,35.5,29.87,West,268,0.0,2.0,71,0.00,,,0.00,VWS V14.01,2013-10-16 23:59:00,
2013-10-16 19:00:00,44.2,36.1,29.87,West,268,0.0,2.0,73,0.00,,,0.00,VWS V14.01,2013-10-17 00:00:00,
2013-10-16 19:04:00,43.8,36.1,29.87,West,268,0.0,1.0,74,0.00,,,0.00,VWS V14.01,2013-10-17 00:04:00,
2013-10-16 19:09:00,43.1,36.1,29.87,West,268,0.0,1.0,76,0.00,,,0.00,VWS V14.01,2013-10-17 00:09:00,
2013-10-16 19:14:00,43.0,36.0,29.87,West,268,0.0,1.0,76,0.00,,,0.00,VWS V14.01,2013-10-17 00:14:00,
2013-10-16 19:19:00,42.5,35.5,29.88,West,268,0.0,1.0,76,0.00,,,0.00,VWS V14.01,2013-10-17 00:19:00,
2013-10-16 19:24:00,42.0,35.0,29.88,West,268,0.0,1.0,76,0.00,,,0.00,VWS V14.01,2013-10-17 00:24:00,
2013-10-16 19:29:00,41.8,35.8,29.88,West,268,0.0,1.0,79,0.00,,,0.00,VWS V14.01,2013-10-17 00:29:00,
2013-10-16 19:30:00,41.5,35.5,29.88,West,268,0.0,1.0,79,0.00,,,0.00,VWS V14.01,2013-10-17 00:30:00,
2013-10-16 19:34:00,41.1,35.7,29.88,West,268,0.0,0.0,81,0.00,,,0.00,VWS V14.01,2013-10-17 00:34:00,
2013-10-16 19:39:00,40.2,34.8,29.88,West,268,0.0,1.0,81,0.00,,,0.00,VWS V14.01,2013-10-17 00:39:00,
2013-10-16 19:44:00,39.4,34.4,29.88,West,268,1.0,1.0,82,0.00,,,0.00,VWS V14.01,2013-10-17 00:44:00,
2013-10-16 19:49:00,39.8,35.4,29.88,West,268,0.0,1.0,84,0.00,,,0.00,VWS V14.01,2013-10-17 00:49:00,
2013-10-16 19:54:00,40.0,35.3,29.88,West,268,0.0,1.0,83,0.00,,,0.00,VWS V14.01,2013-10-17 00:54:00,
2013-10-16 19:59:00,39.7,35.3,29.87,West,268,0.0,1.0,84,0.00,,,0.00,VWS V14.01,2013-10-17 00:59:00,
2013-10-16 20:00:00,39.5,35.1,29.88,West,268,0.0,1.0,84,0.00,,,0.00,VWS V14.01,2013-10-17 01:00:00,
2013-10-16 20:04:00,39.5,35.1,29.87,West,268,0.0,0.0,84,0.00,,,0.00,VWS V14.01,2013-10-17 01:04:00,
2013-10-16 20:09:00,39.0,35.2,29.88,West,268,0.0,0.0,86,0.00,,,0.00,VWS V14.01,2013-10-17 01:09:00,
2013-10-16 20:14:00,38.5,35.0,29.87,West,268,0.0,0.0,87,0.00,,,0.00,VWS V14.01,2013-10-17 01:14:00,
2013-10-16 20:19:00,38.4,35.2,29.87,West,268,0.0,0.0,88,0.00,,,0.00,VWS V14.01,2013-10-17 01:19:00,
2013-10-16 20:24:00,38.4,35.2,29.87,West,268,0.0,0.0,88,0.00,,,0.00,VWS V14.01,2013-10-17 01:24:00,
2013-10-16 20:29:00,38.5,35.0,29.87,West,268,0.0,0.0,87,0.00,,,0.00,VWS V14.01,2013-10-17 01:29:00,
2013-10-16 20:30:00,38.4,34.9,29.88,West,268,0.0,0.0,87,0.00,,,0.00,VWS V14.01,2013-10-17 01:30:00,
2013-10-16 20:34:00,38.2,35.0,29.87,West,268,0.0,0.0,88,0.00,,,0.00,VWS V14.01,2013-10-17 01:34:00,
2013-10-16 20:39:00,38.3,35.1,29.87,West,268,0.0,0.0,88,0.00,,,0.00,VWS V14.01,2013-10-17 01:39:00,
2013-10-16 20:44:00,37.8,34.6,29.88,West,268,1.0,1.0,88,0.00,,,0.00,VWS V14.01,2013-10-17 01:44:00,
2013-10-16 20:49:00,36.9,34.2,29.88,West,268,1.0,1.0,90,0.00,,,0.00,VWS V14.01,2013-10-17 01:49:00,
2013-10-16 20:54:00,36.9,34.8,29.87,West,268,0.0,1.0,92,0.00,,,0.00,VWS V14.01,2013-10-17 01:54:00,
2013-10-16 20:59:00,36.9,34.5,29.87,West,268,0.0,1.0,91,0.00,,,0.00,VWS V14.01,2013-10-17 01:59:00,
2013-10-16 21:00:00,36.6,34.2,29.87,West,268,0.0,1.0,91,0.00,,,0.00,VWS V14.01,2013-10-17 02:00:00,
2013-10-16 21:04:00,36.4,34.3,29.87,West,268,0.0,0.0,92,0.00,,,0.00,VWS V14.01,2013-10-17 02:04:00,
2013-10-16 21:09:00,36.0,33.9,29.87,West,268,0.0,0.0,92,0.00,,,0.00,VWS V14.01,2013-10-17 02:09:00,
2013-10-16 21:14:00,35.9,34.1,29.87,West,268,0.0,0.0,93,0.00,,,0.00,VWS V14.01,2013-10-17 02:14:00,
2013-10-16 21:19:00,35.8,34.0,29.87,West,268,0.0,0.0,93,0.00,,,0.00,VWS V14.01,2013-10-17 02:19:00,
2013-10-16 21:24:00,35.9,34.1,29.87,West,268,0.0,1.0,93,0.00,,,0.00,VWS V14.01,2013-10-17 02:24:00,
2013-10-16 21:29:00,35.8,34.2,29.87,West,268,0.0,2.0,94,0.00,,,0.00,VWS V14.01,2013-10-17 02:29:00,
2013-10-16 21:30:00,35.8,34.0,29.87,West,268,0.0,2.0,93,0.00,,,0.00,VWS V14.01,2013-10-17 02:30:00,
2013-10-16 21:34:00,35.6,33.8,29.87,West,268,0.0,0.0,93,0.00,,,0.00,VWS V14.01,2013-10-17 02:34:00,
2013-10-16 21:39:00,35.3,33.5,29.87,West,268,0.0,1.0,93,0.00,,,0.00,VWS V14.01,2013-10-17 02:39:00,
2013-10-16 21:44:00,34.8,33.2,29.87,West,268,0.0,1.0,94,0.00,,,0.00,VWS V14.01,2013-10-17 02:44:00,
2013-10-16 21:49:00,34.8,33.2,29.86,West,268,0.0,1.0,94,0.00,,,0.00,VWS V14.01,2013-10-17 02:49:00,
2013-10-16 21:54:00,34.7,33.4,29.87,West,268,0.0,1.0,95,0.00,,,0.00,VWS V14.01,2013-10-17 02:54:00,
2013-10-16 21:59:00,34.8,33.5,29.86,West,268,0.0,1.0,95,0.00,,,0.00,VWS V14.01,2013-10-17 02:59:00,
2013-10-16 22:00:00,35.0,33.7,29.86,West,268,0.0,1.0,95,0.00,,,0.00,VWS V14.01,2013-10-17 03:00:00,
2013-10-16 22:04:00,35.0,33.7,29.87,West,268,0.0,0.0,95,0.00,,,0.00,VWS V14.01,2013-10-17 03:04:00,
2013-10-16 22:09:00,35.0,33.7,29.86,West,268,0.0,0.0,95,0.00,,,0.00,VWS V14.01,2013-10-17 03:09:00,
2013-10-16 22:14:00,34.7,33.4,29.87,West,268,0.0,0.0,95,0.00,,,0.00,VWS V14.01,2013-10-17 03:14:00,
2013-10-16 22:19:00,34.5,33.2,29.87,West,268,0.0,0.0,95,0.00,,,0.00,VWS V14.01,2013-10-17 03:19:00,
2013-10-16 22:24:00,34.4,33.1,29.87,West,268,0.0,0.0,95,0.00,,,0.00,VWS V14.01,2013-10-17 03:24:00,
2013-10-16 22:29:00,34.4,33.1,29.86,West,268,0.0,0.0,95,0.00,,,0.00,VWS V14.01,2013-10-17 03:29:00,
2013-10-16 22:30:00,34.4,33.4,29.87,West,268,0.0,0.0,96,0.00,,,0.00,VWS V14.01,2013-10-17 03:30:00,
2013-10-16 22:34:00,34.4,33.4,29.87,West,268,0.0,1.0,96,0.00,,,0.00,VWS V14.01,2013-10-17 03:34:00,
2013-10-16 22:39:00,34.2,33.2,29.86,West,268,0.0,1.0,96,0.00,,,0.00,VWS V14.01,2013-10-17 03:39:00,
2013-10-16 22:44:00,33.7,32.4,29.87,West,268,1.0,1.0,95,0.00,,,0.00,VWS V14.01,2013-10-17 03:44:00,
2013-10-16 22:49:00,33.7,32.7,29.86,West,268,0.0,1.0,96,0.00,,,0.00,VWS V14.01,2013-10-17 03:49:00,
2013-10-16 22:54:00,33.8,32.8,29.87,West,268,0.0,1.0,96,0.00,,,0.00,VWS V14.01,2013-10-17 03:54:00,
2013-10-16 22:59:00,33.4,32.4,29.87,West,268,0.0,1.0,96,0.00,,,0.00,VWS V14.01,2013-10-17 03:59:00,
2013-10-16 23:00:00,33.4,32.4,29.87,West,268,0.0,1.0,96,0.00,,,0.00,VWS V14.01,2013-10-17 04:00:00,
2013-10-16 23:01:00,33.4,32.4,29.87,West,268,0.0,1.0,96,0.00,,,0.00,VWS V14.01,2013-10-17 04:01:00,
2013-10-16 23:06:00,33.7,32.9,29.86,West,268,0.0,0.0,97,0.00,,,0.00,VWS V14.01,2013-10-17 04:06:00,
2013-10-16 23:11:00,33.8,33.0,29.86,West,268,0.0,1.0,97,0.00,,,0.00,VWS V14.01,2013-10-17 04:11:00,
2013-10-16 23:16:00,33.4,32.4,29.86,West,268,0.0,1.0,96,0.00,,,0.00,VWS V14.01,2013-10-17 04:16:00,
2013-10-16 23:21:00,33.2,32.2,29.86,West,268,0.0,1.0,96,0.00,,,0.00,VWS V14.01,2013-10-17 04:21:00,
2013-10-16 23:26:00,33.3,32.5,29.86,West,268,0.0,1.0,97,0.00,,,0.00,VWS V14.01,2013-10-17 04:26:00,
2013-10-16 23:30:00,33.4,32.6,29.86,West,268,0.0,1.0,97,0.00,,,0.00,VWS V14.01,2013-10-17 04:30:00,
2013-10-16 23:31:00,33.4,32.6,29.86,West,268,0.0,0.0,97,0.00,,,0.00,VWS V14.01,2013-10-17 04:31:00,
2013-10-16 23:36:00,33.2,32.4,29.86,West,268,0.0,0.0,97,0.00,,,0.00,VWS V14.01,2013-10-17 04:36:00,
2013-10-16 23:41:00,33.3,32.5,29.86,West,268,0.0,0.0,97,0.00,,,0.00,VWS V14.01,2013-10-17 04:41:00,
2013-10-16 23:46:00,33.6,32.8,29.86,West,268,0.0,0.0,97,0.00,,,0.00,VWS V14.01,2013-10-17 04:46:00,
2013-10-16 23:51:00,33.7,32.9,29.86,West,268,0.0,0.0,97,0.00,,,0.00,VWS V14.01,2013-10-17 04:51:00,
2013-10-16 23:56:00,33.7,32.9,29.86,West,268,0.0,0.0,97,0.00,,,0.00,VWS V14.01,2013-10-17 04:56:00,